Location: �couen
(49.0206°N, 2.3831°E)
Time: 13:58:28
(UTC+00:00)

Lacrosse 4 Rocket - Pass Details

Date: 16 October 2021
Orbit: 537 x 619 km, 68.0° (Epoch: 08 December)

Event Time Altitude Azimuth Distance (km) Brightness Sun altitude
Rises 18:30:06 0° 333° (NNW) 2,779 5.4 -15.8°
Reaches altitude 10° 18:32:47 10° 351° (N) 1,894 4.2 -16.2°
Maximum altitude 18:35:59 20° 39° (NE) 1,365 3.0 -16.7°
Enters shadow 18:36:18 20° 46° (NE) 1,373 3.0 -16.8°
